Zurück zum Katalog

THORAD AGENA D DEB

AktivPO
NORAD 4681·DEBRIS·🇺🇸 United States

Gestartet Apr 8, 1970 von Vandenberg Space Force Base

Loading…

Nächste Überflüge (nächste 24 Stunden)

TLE

AktuellSource: Space-Track

Epoche: Sep 14, 2026, 13:01 UTC

1 04681U 70025BE  26257.54253604  .00000090  00000-0  32843-3 0  9996
2 04681  99.8342 112.5233 0240574 199.3702 188.7686 13.08912393686885

Verfolge THORAD AGENA D DEB in Echtzeit mit AllMySat

Download on the App Store